Location: Le Hiès Ruisseau
(43.3000°N, 0.4500°W)
Time: 02:37:50
(UTC+00:00)

COSMOS 2455 - Pass Details

Date: 28 January 2023
Orbit: 898 x 911 km, 67.1° (Epoch: 27 March)

Event Time Altitude Azimuth Distance (km) Brightness Sun altitude
Rises 18:12:42 0° 213° (SSW) 3,508 6.7 -12.0°
Reaches altitude 10° 18:15:11 10° 215° (SW) 2,573 5.9 -12.4°
Maximum altitude 18:21:09 78° 301° (WNW) 928 3.0 -13.5°
Drops below altitude 10° 18:27:12 10° 28° (NNE) 2,597 4.9 -14.5°
Enters shadow 18:28:03 - 29° (NNE) 2,916 5.1 -14.7°
